Lid_Strength_Index
1 1 1 1 2 2 2 2 2 3 3 3 3 4 3 3 3 3 3 3 3 3 2 3 3 2 4 6 5 -0 -2 -1 1 3 4 3 4 6 8 7 7 7 7 7 6 5 6
2 2 2 2 2 2 2 3 3 3 3 3 4 4 4 4 4 3 3 3 3 3 2 3 2 2 5 7 0 -0 2 3 4 4 3 3 4 5 6 7 8 6 7 6 6 5 5
3 3 3 2 2 3 3 3 3 3 3 4 4 4 4 4 4 4 3 3 3 2 2 2 2 2 3 4 0 -0 3 4 4 4 3 3 3 6 6 7 5 6 8 7 6 7 7
3 3 3 3 3 3 3 4 4 4 4 4 4 4 4 4 4 4 4 4 4 2 2 2 2 3 6 1 1 1 3 3 3 3 2 3 3 5 6 4 6 8 10 12 8 7 7
4 3 3 3 3 3 4 4 4 4 4 4 4 5 5 5 5 4 5 4 4 1 2 2 4 4 6 1 2 2 2 3 2 3 3 2 4 6 5 8 10 10 12 11 9 7 7
4 4 4 3 4 4 4 4 4 4 4 5 5 5 5 5 5 5 5 4 2 3 2 1 2 5 3 5 3 2 2 2 3 4 4 5 7 9 9 11 13 12 11 10 10 8 8
4 4 4 4 4 4 4 5 5 5 4 5 5 5 5 5 5 5 5 4 6 6 5 5 5 4 3 2 2 3 2 3 3 5 8 6 9 11 9 8 8 9 10 10 8 7 8
5 5 5 5 4 5 5 5 5 5 5 5 5 5 5 5 6 6 6 5 6 6 8 4 3 3 3 3 5 4 2 5 5 8 7 8 10 7 6 7 8 8 10 10 8 7 9
5 5 5 5 5 5 5 5 5 5 5 5 5 5 5 6 6 4 4 5 4 4 8 5 4 4 5 5 5 5 4 5 6 8 8 9 8 5 6 8 8 10 11 10 10 8 9
5 5 5 5 5 5 5 5 5 5 5 5 5 6 6 7 5 4 4 3 3 4 10 7 6 6 4 5 7 3 3 4 6 8 7 8 6 6 7 8 8 12 8 8 8 10 13
5 5 5 5 5 5 5 5 5 5 6 6 6 6 6 7 7 4 3 3 3 5 15 7 7 4 5 6 6 5 3 5 7 7 8 9 8 8 8 7 7 9 8 9 9 11 12
5 5 5 5 5 5 5 6 6 6 6 6 6 6 6 5 5 3 1 1 4 10 14 8 6 7 7 6 6 5 5 5 5 7 7 8 6 7 7 6 6 6 8 9 10 12 16
5 5 5 5 5 5 5 6 6 6 6 6 6 7 7 6 7 5 3 4 11 13 7 9 9 8 8 8 7 6 7 8 10 12 11 8 8 7 6 9 7 8 12 14 15 15 15
6 5 5 5 5 5 5 5 6 6 6 6 7 7 5 5 4 4 4 7 13 9 8 7 8 8 9 7 7 7 8 9 7 9 11 12 12 9 7 8 10 10 11 14 18 17 15
5 5 5 5 5 5 5 5 5 6 6 6 7 5 5 3 3 3 6 11 11 8 7 8 8 10 9 8 7 8 9 9 8 8 11 12 11 7 6 6 8 10 12 10 13 13 15
5 5 5 5 5 5 5 5 5 6 6 7 7 6 4 3 1 4 8 10 8 7 7 7 9 8 10 8 9 9 9 7 7 6 7 10 12 9 7 7 7 9 9 13 13 17 18
5 5 5 5 5 5 5 6 6 6 7 7 6 5 3 2 3 6 10 9 7 5 5 7 8 9 9 9 8 10 9 7 6 7 7 9 10 10 8 10 10 10 12 11 12 13 16
5 4 5 5 5 5 6 6 6 6 7 7 6 7 2 2 7 7 9 7 7 6 5 6 6 8 8 8 8 9 9 7 6 7 9 8 10 13 10 8 7 9 10 11 14 15 14
6 6 5 5 5 5 6 6 6 7 7 9 9 7 3 3 9 9 7 7 6 6 6 7 7 6 6 8 10 8 7 6 6 7 9 9 11 14 12 10 9 10 9 10 10 12 14
6 6 6 6 6 6 6 6 6 6 7 8 8 8 6 6 6 8 9 8 7 5 6 6 6 6 7 8 8 9 8 6 6 7 4 6 11 12 14 12 11 11 9 9 11 14 13
5 5 6 6 6 6 6 6 6 7 7 7 5 7 6 9 7 7 7 7 7 8 6 5 7 7 8 10 9 9 7 7 7 6 7 8 12 11 11 9 9 10 10 10 12 12 13
5 5 5 6 6 6 6 6 6 7 8 8 7 7 6 7 7 7 8 8 7 7 7 7 8 7 7 9 9 10 8 9 9 8 9 9 12 10 12 8 8 9 8 9 10 10 11
4 5 5 6 6 6 6 6 6 7 8 8 6 6 7 7 8 9 8 7 7 6 6 5 6 7 8 7 6 6 7 7 8 8 9 9 11 12 15 10 10 12 10 9 9 8 9
4 4 4 5 5 5 6 6 6 7 7 9 7 7 9 10 9 9 8 8 7 6 7 5 5 7 5 4 5 5 6 7 7 8 8 10 11 11 14 13 17 10 7 7 8 7 7
3 3 3 4 4 4 5 5 5 6 6 9 8 7 8 10 8 7 8 8 7 6 7 6 5 4 4 6 9 10 10 10 8 7 8 9 10 13 15 15 12 10 8 9 11 10 7
3 3 3 3 3 3 4 4 4 5 6 8 9 5 6 9 9 8 8 7 8 8 8 6 5 4 5 7 9 14 14 11 12 10 7 8 9 11 13 15 16 11 7 6 7 13 7
3 3 3 3 3 3 3 4 4 4 5 7 8 6 7 9 7 7 8 9 7 8 8 6 6 6 5 9 11 12 12 9 12 12 11 11 11 13 13 14 12 8 6 6 14 13 7
2 2 2 2 3 3 3 3 4 4 4 6 7 6 6 8 7 7 6 7 7 7 8 7 7 7 8 10 11 11 11 10 11 10 12 12 13 13 13 14 15 7 7 12 10 8 7
1 1 2 2 3 2 3 3 3 3 3 4 7 4 4 6 6 5 4 5 5 5 7 6 7 7 7 9 9 10 11 10 11 13 8 12 10 12 11 11 8 6 7 6 6 7 6